{"data":{"norad_id":60202,"epoch":"2026-05-24T21:17:57.860736Z","epoch_age_seconds":78002,"freshness":"FRESH","line1":"1 60202U 24124V   26144.88747524 -.00000400  00000+0 -11336-5 0  9999","line2":"2 60202  53.1607 328.4404 0001008  89.1752 270.9364 15.31697445107161","mean_motion":15.31697445,"eccentricity":0.0001008,"inclination_deg":53.1607,"raan_deg":328.4404,"arg_perigee_deg":89.1752,"mean_anomaly_deg":270.9364,"bstar":-1.1336e-6,"rev_number":10716,"period_min":94.013344782984,"perigee_km":470.05724398944,"apogee_km":471.43797912713,"semimajor_km":6848.8846115583,"source":"CELESTRAK","updated_at":"2026-05-25T13:38:19.197609Z"}}